STARLINK-2117 (47395 NORAD) Tracking and Keplerian Element Data

This shows tracking and keplerian element data for the satellite.

Feedback or suggestion? Click here.




ElementValue
Catalog47395
NameSTARLINK-2117
Epoch Orbit177
Epoch Day101.91668981
Epoch Year2021
RAAN171.9235
Inclination53.0537
Eccentricity0.0004182
Argument of Perigee8.9665
Mean Anonmoly157.6911
Mean Motion15.62860001
Decay Rate-0.00092669
L11 47395U 21005AY 21101.91668981 -.00092669 00000-0 -10130-2 0 9990
L22 47395 53.0537 171.9235 0004182 8.9665 157.6911 15.62860001 1774

Live tracking and technical data element details for STARLINK-2117 (NORAD 47395). STARLINK-2117 can be tracked NOW for your location showing map with azimuth and elevation plus other details from your city location.

Track the satellite on the map from your city or location and see movement details for azimuth, elevation, latitude, longitude, range, height, and movement on the map or in text.







IsCatalogInMostPopularTable: catalog: 47395, numindb: 17
Update: records affected: 1



GetName: 47395 STARLINK-2117

Hit Count: updated at: Tue, 13 Apr 2021 04:01:54 GMT